Time,TemperatureF,DewpointF,PressureIn,WindDirection,WindDirectionDegrees,WindSpeedMPH,WindSpeedGustMPH,Humidity,HourlyPrecipIn,Conditions,Clouds,dailyrainin,SoftwareType,DateUTC
2013-07-12 00:09:00,52.1,49.0,30.01,NE,38,0.0,0.0,89,0.00,,,0.00,weatherlink.com 1.10,2013-07-12 07:09:00,
2013-07-12 00:24:00,51.6,49.0,30.01,NE,39,0.0,0.0,89,0.00,,,0.00,weatherlink.com 1.10,2013-07-12 07:24:00,
2013-07-12 00:39:00,51.6,49.0,30.01,NE,38,0.0,0.0,91,0.00,,,0.00,weatherlink.com 1.10,2013-07-12 07:39:00,
2013-07-12 00:54:00,51.0,49.0,30.01,NE,37,0.0,0.0,91,0.00,,,0.00,weatherlink.com 1.10,2013-07-12 07:54:00,
2013-07-12 01:09:00,50.6,48.0,30.01,NE,37,0.0,0.0,91,0.00,,,0.00,weatherlink.com 1.10,2013-07-12 08:09:00,
2013-07-12 01:24:00,50.3,48.0,30.01,NE,37,0.0,0.0,92,0.00,,,0.00,weatherlink.com 1.10,2013-07-12 08:24:00,
2013-07-12 01:39:00,50.0,48.0,30.01,NE,37,0.0,0.0,92,0.00,,,0.00,weatherlink.com 1.10,2013-07-12 08:39:00,
2013-07-12 01:54:00,49.4,47.0,30.01,NE,37,0.0,0.0,92,0.00,,,0.00,weatherlink.com 1.10,2013-07-12 08:54:00,
2013-07-12 02:09:00,49.2,47.0,30.01,NE,37,0.0,0.0,93,0.00,,,0.00,weatherlink.com 1.10,2013-07-12 09:09:00,
2013-07-12 02:24:00,49.2,47.0,30.02,NE,37,0.0,0.0,93,0.00,,,0.00,weatherlink.com 1.10,2013-07-12 09:24:00,
2013-07-12 02:39:00,48.7,47.0,30.01,NE,37,0.0,0.0,93,0.00,,,0.00,weatherlink.com 1.10,2013-07-12 09:39:00,
2013-07-12 02:54:00,48.4,47.0,30.01,NNE,22,0.0,1.0,93,0.00,,,0.00,weatherlink.com 1.10,2013-07-12 09:54:00,
2013-07-12 03:09:00,48.1,46.0,30.01,NNE,22,0.0,0.0,93,0.00,,,0.00,weatherlink.com 1.10,2013-07-12 10:09:00,
2013-07-12 03:24:00,48.1,46.0,30.02,NNE,22,0.0,0.0,93,0.00,,,0.00,weatherlink.com 1.10,2013-07-12 10:24:00,
2013-07-12 03:39:00,48.0,46.0,30.01,NNE,22,0.0,0.0,93,0.00,,,0.00,weatherlink.com 1.10,2013-07-12 10:39:00,
2013-07-12 03:54:00,47.6,46.0,30.01,NNE,22,0.0,0.0,93,0.00,,,0.00,weatherlink.com 1.10,2013-07-12 10:54:00,
2013-07-12 04:09:00,48.0,46.0,30.01,NNE,22,0.0,1.0,93,0.00,,,0.00,weatherlink.com 1.10,2013-07-12 11:09:00,
2013-07-12 04:24:00,47.4,46.0,30.01,NNE,23,0.0,0.0,94,0.00,,,0.00,weatherlink.com 1.10,2013-07-12 11:24:00,
2013-07-12 04:39:00,47.1,46.0,30.01,NNE,23,0.0,0.0,94,0.00,,,0.00,weatherlink.com 1.10,2013-07-12 11:39:00,
2013-07-12 04:54:00,47.0,45.0,30.01,NNE,22,0.0,0.0,94,0.00,,,0.00,weatherlink.com 1.10,2013-07-12 11:54:00,
2013-07-12 05:09:00,46.6,45.0,30.01,NNE,23,0.0,1.0,94,0.00,,,0.00,weatherlink.com 1.10,2013-07-12 12:09:00,
2013-07-12 05:24:00,46.6,45.0,30.02,NNE,22,0.0,0.0,94,0.00,,,0.00,weatherlink.com 1.10,2013-07-12 12:24:00,
2013-07-12 05:39:00,46.4,45.0,30.02,NNE,22,0.0,0.0,94,0.00,,,0.00,weatherlink.com 1.10,2013-07-12 12:39:00,
2013-07-12 05:54:00,46.2,45.0,30.02,NNE,23,0.0,0.0,94,0.00,,,0.00,weatherlink.com 1.10,2013-07-12 12:54:00,
2013-07-12 06:09:00,46.0,44.0,30.02,NNE,23,0.0,0.0,94,0.00,,,0.00,weatherlink.com 1.10,2013-07-12 13:09:00,
2013-07-12 06:24:00,46.7,45.0,30.02,ENE,65,0.0,0.0,94,0.00,,,0.00,weatherlink.com 1.10,2013-07-12 13:24:00,
2013-07-12 06:39:00,46.5,45.0,30.02,ENE,65,0.0,0.0,94,0.00,,,0.00,weatherlink.com 1.10,2013-07-12 13:39:00,
2013-07-12 06:54:00,46.7,45.0,30.02,ENE,65,0.0,0.0,94,0.00,,,0.00,weatherlink.com 1.10,2013-07-12 13:54:00,
2013-07-12 07:09:00,47.5,46.0,30.02,ENE,65,0.0,0.0,94,0.00,,,0.00,weatherlink.com 1.10,2013-07-12 14:09:00,
2013-07-12 07:24:00,49.3,48.0,30.02,ENE,65,0.0,0.0,94,0.00,,,0.00,weatherlink.com 1.10,2013-07-12 14:24:00,
2013-07-12 07:39:00,52.2,50.0,30.03,ENE,65,0.0,0.0,93,0.00,,,0.00,weatherlink.com 1.10,2013-07-12 14:39:00,
2013-07-12 07:54:00,54.9,53.0,30.02,East,96,0.0,0.0,93,0.00,,,0.00,weatherlink.com 1.10,2013-07-12 14:54:00,
2013-07-12 08:10:00,57.0,55.0,30.02,East,93,0.0,0.0,92,0.00,,,0.00,weatherlink.com 1.10,2013-07-12 15:10:00,
2013-07-12 08:25:00,58.4,54.0,30.02,SE,130,0.0,1.0,86,0.00,,,0.00,weatherlink.com 1.10,2013-07-12 15:25:00,
2013-07-12 08:40:00,59.5,53.0,30.02,ESE,116,2.0,2.0,78,0.00,,,0.00,weatherlink.com 1.10,2013-07-12 15:40:00,
2013-07-12 08:55:00,61.1,54.0,30.02,East,98,1.0,3.0,76,0.00,,,0.00,weatherlink.com 1.10,2013-07-12 15:55:00,
2013-07-12 09:10:00,62.6,53.0,30.02,ESE,113,2.0,8.0,72,0.00,,,0.00,weatherlink.com 1.10,2013-07-12 16:10:00,
2013-07-12 09:25:00,63.7,53.0,30.02,NNE,31,0.0,4.0,68,0.00,,,0.00,weatherlink.com 1.10,2013-07-12 16:25:00,
2013-07-12 09:40:00,64.7,53.0,30.03,East,82,1.0,7.0,66,0.00,,,0.00,weatherlink.com 1.10,2013-07-12 16:40:00,
2013-07-12 09:55:00,63.8,52.0,30.03,WNW,293,2.0,5.0,66,0.00,,,0.00,weatherlink.com 1.10,2013-07-12 16:55:00,
2013-07-12 10:10:00,63.5,53.0,30.03,West,275,1.0,4.0,68,0.00,,,0.00,weatherlink.com 1.10,2013-07-12 17:10:00,
2013-07-12 10:25:00,64.1,52.0,30.03,WNW,288,2.0,3.0,64,0.00,,,0.00,weatherlink.com 1.10,2013-07-12 17:25:00,
2013-07-12 10:40:00,64.1,53.0,30.03,NW,306,4.0,4.0,67,0.00,,,0.00,weatherlink.com 1.10,2013-07-12 17:40:00,
2013-07-12 10:55:00,63.6,52.0,30.04,WNW,286,1.0,5.0,67,0.00,,,0.00,weatherlink.com 1.10,2013-07-12 17:55:00,
2013-07-12 11:10:00,63.1,54.0,30.04,West,271,3.0,5.0,71,0.00,,,0.00,weatherlink.com 1.10,2013-07-12 18:10:00,
2013-07-12 11:25:00,63.7,54.0,30.05,WNW,293,1.0,4.0,71,0.00,,,0.00,weatherlink.com 1.10,2013-07-12 18:25:00,
2013-07-12 11:40:00,63.5,53.0,30.04,North,8,1.0,9.0,69,0.00,,,0.00,weatherlink.com 1.10,2013-07-12 18:40:00,
2013-07-12 11:55:00,63.7,55.0,30.05,WNW,287,2.0,6.0,72,0.00,,,0.00,weatherlink.com 1.10,2013-07-12 18:55:00,
2013-07-12 12:10:00,64.1,55.0,30.05,ENE,63,1.0,9.0,71,0.00,,,0.00,weatherlink.com 1.10,2013-07-12 19:10:00,
2013-07-12 12:25:00,63.4,54.0,30.05,SSE,153,1.0,5.0,72,0.00,,,0.00,weatherlink.com 1.10,2013-07-12 19:25:00,
2013-07-12 12:40:00,63.5,54.0,30.05,NW,311,3.0,4.0,71,0.00,,,0.00,weatherlink.com 1.10,2013-07-12 19:40:00,
2013-07-12 12:55:00,64.0,54.0,30.06,West,277,2.0,4.0,71,0.00,,,0.00,weatherlink.com 1.10,2013-07-12 19:55:00,
2013-07-12 13:25:00,64.1,55.0,30.06,East,88,1.0,8.0,71,0.00,,,0.00,weatherlink.com 1.10,2013-07-12 20:25:00,
2013-07-12 13:40:00,64.6,54.0,30.06,ENE,66,2.0,5.0,68,0.00,,,0.00,weatherlink.com 1.10,2013-07-12 20:40:00,
2013-07-12 13:55:00,65.1,55.0,30.06,SE,127,5.0,6.0,70,0.00,,,0.00,weatherlink.com 1.10,2013-07-12 20:55:00,
2013-07-12 14:10:00,65.1,55.0,30.06,West,281,0.0,6.0,70,0.00,,,0.00,weatherlink.com 1.10,2013-07-12 21:10:00,
2013-07-12 14:40:00,64.1,54.0,30.07,ENE,60,1.0,8.0,70,0.00,,,0.00,weatherlink.com 1.10,2013-07-12 21:40:00,
2013-07-12 14:55:00,64.4,55.0,30.07,WNW,283,2.0,5.0,72,0.00,,,0.00,weatherlink.com 1.10,2013-07-12 21:55:00,
2013-07-12 15:10:00,64.7,56.0,30.07,NW,309,0.0,7.0,74,0.00,,,0.00,weatherlink.com 1.10,2013-07-12 22:10:00,
2013-07-12 15:25:00,64.4,55.0,30.07,West,271,1.0,5.0,72,0.00,,,0.00,weatherlink.com 1.10,2013-07-12 22:25:00,
2013-07-12 15:40:00,64.6,55.0,30.07,WNW,295,3.0,5.0,71,0.00,,,0.00,weatherlink.com 1.10,2013-07-12 22:40:00,
2013-07-12 15:55:00,64.0,56.0,30.07,WNW,287,1.0,8.0,74,0.00,,,0.00,weatherlink.com 1.10,2013-07-12 22:55:00,
2013-07-12 16:10:00,63.7,55.0,30.07,NNW,333,1.0,8.0,74,0.00,,,0.00,weatherlink.com 1.10,2013-07-12 23:10:00,
2013-07-12 16:25:00,63.6,56.0,30.07,West,277,2.0,8.0,75,0.00,,,0.00,weatherlink.com 1.10,2013-07-12 23:25:00,
2013-07-12 16:40:00,63.6,56.0,30.07,NE,49,2.0,9.0,75,0.00,,,0.00,weatherlink.com 1.10,2013-07-12 23:40:00,
2013-07-12 16:55:00,63.5,55.0,30.07,NNW,338,2.0,10.0,75,0.00,,,0.00,weatherlink.com 1.10,2013-07-12 23:55:00,
2013-07-12 17:10:00,64.1,55.0,30.06,WSW,245,0.0,6.0,73,0.00,,,0.00,weatherlink.com 1.10,2013-07-13 00:10:00,
2013-07-12 17:25:00,63.9,55.0,30.06,WNW,284,0.0,6.0,74,0.00,,,0.00,weatherlink.com 1.10,2013-07-13 00:25:00,
2013-07-12 17:41:00,62.9,55.0,30.06,South,180,1.0,7.0,76,0.00,,,0.00,weatherlink.com 1.10,2013-07-13 00:41:00,
2013-07-12 18:11:00,62.0,55.0,30.07,SE,137,0.0,9.0,78,0.00,,,0.00,weatherlink.com 1.10,2013-07-13 01:11:00,
2013-07-12 18:26:00,62.0,55.0,30.07,SW,229,0.0,5.0,79,0.00,,,0.00,weatherlink.com 1.10,2013-07-13 01:26:00,
2013-07-12 18:41:00,61.8,55.0,30.07,WNW,283,1.0,4.0,79,0.00,,,0.00,weatherlink.com 1.10,2013-07-13 01:41:00,
2013-07-12 18:56:00,62.0,55.0,30.07,SE,131,2.0,4.0,79,0.00,,,0.00,weatherlink.com 1.10,2013-07-13 01:56:00,
2013-07-12 19:26:00,61.2,55.0,30.07,ESE,107,1.0,4.0,80,0.00,,,0.00,weatherlink.com 1.10,2013-07-13 02:26:00,
2013-07-12 19:56:00,60.8,54.0,30.07,SE,141,1.0,5.0,77,0.00,,,0.00,weatherlink.com 1.10,2013-07-13 02:56:00,
2013-07-12 20:11:00,59.7,52.0,30.07,West,269,0.0,6.0,77,0.00,,,0.00,weatherlink.com 1.10,2013-07-13 03:11:00,
2013-07-12 20:26:00,58.7,52.0,30.07,ENE,61,2.0,3.0,78,0.00,,,0.00,weatherlink.com 1.10,2013-07-13 03:26:00,
2013-07-12 20:41:00,58.1,52.0,30.08,SE,143,0.0,7.0,79,0.00,,,0.00,weatherlink.com 1.10,2013-07-13 03:41:00,
2013-07-12 20:56:00,57.5,51.0,30.08,NE,41,0.0,2.0,80,0.00,,,0.00,weatherlink.com 1.10,2013-07-13 03:56:00,
2013-07-12 21:11:00,56.8,51.0,30.08,NE,47,0.0,3.0,82,0.00,,,0.00,weatherlink.com 1.10,2013-07-13 04:11:00,
2013-07-12 21:26:00,56.1,51.0,30.08,NE,41,0.0,3.0,83,0.00,,,0.00,weatherlink.com 1.10,2013-07-13 04:26:00,
2013-07-12 21:41:00,55.7,51.0,30.09,NW,319,0.0,2.0,85,0.00,,,0.00,weatherlink.com 1.10,2013-07-13 04:41:00,
2013-07-12 21:56:00,55.1,51.0,30.09,NE,40,0.0,0.0,85,0.00,,,0.00,weatherlink.com 1.10,2013-07-13 04:56:00,
2013-07-12 22:11:00,54.2,50.0,30.09,NNE,15,0.0,0.0,86,0.00,,,0.00,weatherlink.com 1.10,2013-07-13 05:11:00,
2013-07-12 22:26:00,53.4,50.0,30.09,NNE,15,0.0,0.0,87,0.00,,,0.00,weatherlink.com 1.10,2013-07-13 05:26:00,
2013-07-12 22:41:00,52.9,50.0,30.09,NNE,15,0.0,0.0,88,0.00,,,0.00,weatherlink.com 1.10,2013-07-13 05:41:00,
2013-07-12 22:56:00,52.7,49.0,30.09,NNE,15,0.0,0.0,88,0.00,,,0.00,weatherlink.com 1.10,2013-07-13 05:56:00,
2013-07-12 23:11:00,52.2,49.0,30.09,NNE,15,0.0,0.0,89,0.00,,,0.00,weatherlink.com 1.10,2013-07-13 06:11:00,
2013-07-12 23:26:00,51.8,49.0,30.10,NNE,15,0.0,0.0,90,0.00,,,0.00,weatherlink.com 1.10,2013-07-13 06:26:00,
2013-07-12 23:41:00,51.7,49.0,30.10,NNE,15,0.0,0.0,90,0.00,,,0.00,weatherlink.com 1.10,2013-07-13 06:41:00,
2013-07-12 23:56:00,51.3,49.0,30.10,NNE,15,0.0,0.0,91,0.00,,,0.00,weatherlink.com 1.10,2013-07-13 06:56:00,